Wind_Speed
3 3 3 3 2 1 2 2 2 2 2 2 2 2 2 2 2 2 2 2 2 2 2 3 2 2 3 3 3 4 4 4 4 5 5 5 7 7 7 8 8 8 7
3 3 3 3 2 2 2 2 3 3 3 3 3 3 3 3 3 3 3 2 3 3 3 3 4 4 4 4 4 5 5 6 5 5 6 5 6 7 8 8 8 9 8
4 4 3 3 3 3 3 3 3 3 3 3 3 3 3 3 3 3 3 3 3 3 4 4 4 5 5 5 5 5 6 6 6 6 6 6 6 6 7 8 8 9 9
4 4 4 4 3 4 4 4 4 4 4 4 4 4 4 4 4 4 4 4 4 4 4 4 5 5 6 6 6 6 7 7 7 7 7 7 7 7 8 8 8 8 9
4 4 4 4 4 4 4 5 4 5 5 5 4 4 4 4 5 5 5 5 5 5 5 5 6 6 6 6 6 6 7 7 8 8 8 8 8 8 9 9 9 9 9
4 3 4 4 4 5 5 5 6 6 6 6 6 5 5 5 5 6 6 6 7 6 6 6 6 6 6 7 7 7 6 6 8 8 9 9 9 9 9 10 10 10 10
4 4 4 4 4 5 5 5 6 6 7 7 7 6 6 6 6 7 7 7 7 7 7 8 8 7 8 8 8 7 8 8 8 8 9 9 9 10 10 11 11 10 11
4 4 5 5 5 5 5 6 6 7 7 7 8 7 7 7 7 7 7 8 8 8 8 8 8 9 9 9 9 8 9 9 9 9 9 9 10 10 11 11 11 11 11
5 5 5 6 6 6 6 6 6 7 7 8 8 8 8 8 8 8 8 8 9 9 9 8 9 9 9 9 9 9 9 9 10 9 10 11 11 11 11 12 12 12 12
6 6 6 6 6 7 7 7 7 7 7 7 8 8 8 8 8 8 8 9 9 9 9 9 9 9 10 10 10 10 10 11 11 11 11 11 12 12 12 12 12 13 12
6 7 7 7 7 7 7 7 7 7 7 7 7 8 8 8 8 8 8 8 9 9 9 9 10 10 10 10 10 11 11 12 12 12 12 12 12 13 13 13 13 13 13
7 7 7 7 7 7 7 8 8 8 7 8 8 8 8 8 8 8 9 9 9 9 9 10 10 10 10 10 11 11 11 12 12 12 12 12 13 13 13 13 13 14 14
7 8 8 8 8 8 8 8 9 8 8 8 8 9 9 9 9 9 9 9 9 9 8 9 9 9 10 10 10 10 11 12 12 12 12 12 12 12 13 13 14 15 14
8 8 8 8 8 8 8 9 9 8 8 8 9 9 9 9 9 10 10 10 9 9 9 8 8 9 9 10 10 10 9 10 11 12 12 12 12 13 13 14 15 15 15
8 8 8 8 9 9 9 9 9 9 9 9 9 9 10 10 11 11 11 11 10 10 10 9 9 8 9 10 10 10 10 10 10 11 12 13 13 14 14 15 15 16 16
9 9 9 9 9 9 9 9 9 9 9 9 9 9 10 10 10 10 10 10 10 9 9 9 9 9 10 10 10 10 11 11 11 11 12 13 14 15 14 14 15 15 16
10 10 10 10 9 9 9 10 10 10 10 10 10 10 11 11 11 11 11 10 11 11 10 10 10 10 10 10 11 11 11 12 12 13 13 13 14 14 15 15 16 16 17
10 10 10 9 9 9 9 9 9 9 10 10 10 11 11 11 11 11 12 12 12 12 11 11 11 11 11 11 11 11 12 12 13 14 14 14 14 15 15 15 15 15 16
10 10 10 9 9 9 9 9 9 10 10 10 11 10 10 10 10 10 11 12 12 11 12 11 12 12 12 12 12 12 12 13 13 14 14 15 15 15 15 15 15 14 14
10 10 10 10 9 9 9 9 10 10 10 11 11 10 10 10 10 10 10 11 11 12 12 13 13 13 13 13 14 14 14 14 14 15 15 15 15 15 15 15 15 14 14
10 10 10 10 10 9 9 10 10 10 11 11 10 10 10 10 11 10 11 11 11 12 13 14 14 14 14 14 15 15 15 15 15 16 16 16 16 15 16 16 15 15 15
10 10 10 10 10 11 11 11 11 12 12 11 11 10 11 11 12 12 12 12 13 13 14 14 14 14 15 15 16 16 16 16 16 16 16 16 16 16 16 17 16 16 16
12 11 11 11 11 12 12 12 12 12 13 13 12 12 12 12 12 13 13 13 13 13 14 14 14 15 15 16 16 16 17 17 17 17 17 17 17 17 17 18 18 17 17
13 13 13 12 12 13 13 13 13 13 13 12 13 13 13 13 13 13 13 14 14 14 14 14 15 15 16 16 17 17 17 18 18 18 18 18 18 18 18 18 18 18 18
14 13 13 13 13 13 13 14 14 14 13 13 13 14 14 14 14 14 13 14 14 15 15 15 15 15 16 17 18 18 18 18 19 18 18 18 19 19 19 19 19 19 18
15 15 14 14 14 14 14 14 14 14 14 14 15 15 15 15 15 15 15 15 16 16 16 16 16 16 17 18 18 19 19 19 20 19 19 19 19 19 19 19 19 20 20
Wind_Direction
178 181 185 194 205 219 227 236 254 266 269 299 304 294 287 282 275 267 278 272 260 250 244 249 255 263 269 265 269 270 268 268 267 274 272 268 249 236 236 237 242 246 252
204 206 206 215 232 244 244 254 257 260 267 280 284 276 274 278 281 280 267 267 267 260 252 258 257 260 265 271 272 267 267 268 267 272 271 266 251 240 241 241 246 251 251
219 219 222 233 245 253 254 256 261 269 269 276 279 274 271 269 269 272 272 272 269 266 264 265 260 261 263 264 268 269 267 268 269 270 268 261 254 244 241 245 249 249 250
226 226 228 242 254 258 257 260 260 258 267 276 274 273 268 263 267 269 262 273 271 262 259 260 261 262 263 266 269 269 268 266 264 267 270 267 260 254 250 252 254 254 255
232 233 240 254 264 265 262 268 264 258 264 268 272 274 274 270 268 271 267 269 267 260 255 255 258 260 262 266 267 267 269 270 267 269 273 272 267 262 257 257 259 262 262
239 245 254 265 271 268 266 269 268 263 263 267 274 278 277 276 274 273 268 267 267 264 259 259 263 262 264 267 268 268 270 270 269 268 268 267 265 261 260 261 263 268 267
242 251 261 269 268 265 263 265 268 267 267 270 272 272 275 276 274 272 266 266 267 267 265 260 263 265 267 266 268 269 270 270 269 266 265 263 262 261 262 261 264 269 269
256 259 263 262 263 263 265 264 268 269 271 272 270 269 270 272 273 271 268 267 267 269 272 268 266 268 267 268 269 269 269 270 269 266 265 265 263 265 267 266 268 268 270
260 261 264 262 262 263 264 266 270 272 272 274 274 272 270 270 269 270 268 268 269 268 269 272 272 271 269 270 271 272 271 272 268 266 268 268 267 266 266 265 266 267 268
261 263 264 264 263 263 266 268 269 270 271 273 275 274 274 273 272 273 271 268 269 268 267 270 273 273 272 273 272 271 269 270 269 269 268 267 266 266 266 266 267 269 271
262 261 263 262 264 265 265 266 267 268 270 272 274 273 276 277 277 277 275 273 274 272 270 272 275 278 278 278 276 273 270 269 270 271 269 268 268 268 269 269 269 272 274
260 261 260 263 264 266 266 265 266 267 269 271 272 273 275 276 275 276 276 274 275 274 274 275 276 278 278 280 280 275 271 270 270 270 270 271 269 268 270 271 272 273 274
257 259 260 264 265 266 266 265 263 265 269 272 272 272 274 274 275 277 276 273 276 277 278 276 276 279 279 280 276 272 269 267 267 268 270 269 267 268 270 272 272 272 272
260 262 263 266 267 266 265 265 264 266 270 272 273 273 275 276 275 277 275 274 276 277 277 278 279 281 284 282 282 282 279 276 274 272 271 271 271 270 270 272 274 272 270
261 264 268 270 265 264 265 265 266 267 270 272 275 276 278 278 276 277 275 272 273 274 273 273 275 281 284 284 283 283 280 282 283 280 275 271 272 274 274 275 275 272 270
266 266 266 268 268 267 266 265 267 268 271 273 274 277 279 278 276 278 278 274 272 274 277 278 276 279 282 282 282 280 279 280 279 279 279 276 274 276 277 277 276 274 271
263 264 264 266 268 271 270 266 265 267 270 273 275 279 280 279 278 277 277 276 272 272 273 275 277 276 276 278 278 278 277 278 279 280 279 279 279 280 279 279 278 276 274
262 264 263 263 266 268 270 272 266 268 270 274 278 280 279 278 277 278 278 278 275 274 273 273 276 277 277 279 279 279 280 282 282 281 281 282 282 282 283 282 282 279 275
261 264 262 260 261 263 269 275 271 272 273 277 281 280 280 280 283 282 282 282 279 274 271 271 274 276 276 277 280 279 279 282 282 283 283 282 281 282 282 282 281 280 276
263 265 266 266 266 268 273 276 276 277 280 282 285 286 285 287 289 291 289 281 276 273 271 272 274 275 276 276 278 279 280 280 280 283 284 283 282 280 280 281 279 276 275
266 265 266 265 266 269 275 278 277 279 283 284 285 287 286 286 288 289 288 286 284 277 276 275 276 277 275 276 278 280 281 281 283 283 283 283 282 281 279 277 275 273 272
267 267 265 264 267 270 275 280 283 281 284 282 283 285 286 285 286 286 287 286 282 279 277 279 279 279 279 279 281 281 281 282 283 283 281 281 281 281 279 276 274 270 268
266 267 267 268 270 274 280 284 286 286 284 282 280 284 284 286 288 284 285 286 287 284 281 281 281 282 282 282 283 283 282 281 281 282 282 280 279 279 278 275 275 272 270
265 264 266 269 273 277 280 281 281 285 283 280 281 282 282 286 290 289 287 287 288 285 282 283 285 284 283 282 282 283 284 284 282 281 282 281 279 278 277 274 274 273 271
263 264 266 269 272 275 278 279 280 281 280 280 282 282 281 285 289 291 290 288 288 287 283 284 286 286 286 285 285 284 284 285 285 283 281 281 279 277 276 275 274 271 269
265 265 266 270 272 275 277 278 278 280 279 280 281 283 284 285 287 289 290 291 290 287 284 284 286 286 286 286 286 285 284 284 283 283 282 280 279 278 276 276 275 271 268
Height
5883 5883 5883 5882 5882 5882 5882 5881 5881 5881 5880 5880 5879 5878 5878 5878 5878 5877 5877 5876 5876 5876 5875 5875 5875 5875 5875 5875 5874 5875 5875 5875 5874 5874 5873 5872 5871 5872 5873 5874 5875 5875 5876
5883 5882 5882 5882 5882 5882 5881 5881 5880 5880 5880 5879 5878 5878 5878 5877 5877 5877 5876 5876 5876 5875 5875 5875 5875 5874 5874 5874 5874 5874 5874 5874 5874 5873 5873 5871 5869 5871 5873 5873 5874 5874 5875
5882 5882 5881 5881 5881 5881 5881 5880 5880 5880 5879 5879 5878 5877 5877 5877 5876 5876 5875 5875 5875 5875 5874 5874 5874 5874 5873 5873 5873 5873 5873 5873 5873 5873 5872 5872 5870 5871 5872 5872 5873 5873 5873
5881 5881 5881 5881 5880 5880 5880 5880 5879 5879 5879 5878 5877 5877 5876 5876 5876 5875 5875 5874 5874 5874 5874 5873 5873 5873 5872 5872 5872 5872 5872 5872 5872 5872 5871 5871 5871 5871 5871 5871 5871 5871 5871
5881 5880 5880 5880 5880 5879 5879 5879 5878 5878 5878 5877 5877 5876 5876 5875 5875 5874 5874 5873 5873 5873 5872 5872 5872 5872 5871 5871 5871 5871 5871 5870 5870 5870 5870 5870 5870 5870 5870 5870 5870 5869 5869
5880 5880 5880 5879 5879 5878 5878 5878 5878 5877 5877 5876 5876 5875 5875 5874 5874 5873 5873 5872 5872 5872 5871 5871 5871 5871 5870 5870 5869 5869 5869 5869 5869 5869 5868 5868 5868 5868 5868 5868 5868 5868 5867
5879 5879 5879 5878 5878 5878 5877 5877 5877 5876 5876 5875 5875 5874 5874 5873 5873 5872 5871 5871 5871 5870 5870 5870 5869 5869 5869 5869 5868 5868 5868 5868 5867 5867 5867 5867 5867 5866 5866 5866 5866 5866 5866
5878 5878 5878 5877 5877 5877 5876 5876 5876 5875 5875 5874 5873 5873 5872 5872 5871 5871 5870 5870 5869 5869 5868 5868 5868 5867 5867 5867 5867 5867 5866 5866 5866 5865 5865 5865 5865 5865 5865 5864 5864 5864 5863
5877 5877 5877 5876 5876 5876 5875 5875 5874 5874 5873 5873 5872 5871 5871 5870 5870 5869 5868 5868 5867 5867 5867 5866 5866 5866 5865 5865 5865 5865 5865 5864 5864 5864 5864 5863 5863 5863 5863 5862 5862 5861 5861
5876 5876 5875 5875 5875 5874 5874 5874 5873 5872 5872 5871 5871 5870 5869 5869 5868 5867 5867 5866 5866 5865 5865 5865 5864 5864 5863 5863 5863 5863 5863 5862 5862 5862 5861 5861 5861 5860 5860 5860 5860 5859 5858
5875 5875 5874 5874 5873 5873 5873 5872 5872 5871 5870 5870 5869 5869 5868 5867 5866 5865 5865 5865 5864 5864 5863 5863 5862 5862 5861 5861 5861 5860 5860 5860 5860 5859 5859 5859 5858 5858 5857 5857 5857 5857 5856
5873 5873 5873 5872 5872 5871 5871 5870 5870 5869 5869 5868 5868 5867 5866 5865 5864 5864 5863 5863 5862 5862 5861 5861 5860 5860 5859 5859 5858 5858 5857 5857 5857 5857 5856 5856 5856 5855 5855 5855 5854 5854 5853
5872 5871 5871 5871 5870 5870 5869 5869 5868 5868 5867 5866 5866 5865 5864 5863 5863 5862 5862 5861 5861 5860 5860 5859 5858 5858 5857 5857 5855 5855 5854 5854 5854 5854 5854 5853 5853 5853 5852 5852 5851 5851 5850
5870 5869 5869 5869 5868 5868 5867 5867 5866 5866 5865 5864 5864 5863 5862 5861 5861 5860 5859 5859 5858 5858 5858 5857 5857 5856 5855 5855 5854 5853 5852 5851 5852 5851 5851 5851 5850 5850 5849 5849 5848 5847 5847
5868 5868 5867 5867 5866 5866 5865 5865 5864 5864 5863 5862 5861 5861 5860 5859 5858 5858 5857 5857 5856 5856 5856 5855 5854 5854 5853 5853 5852 5851 5850 5850 5850 5849 5848 5848 5847 5847 5846 5846 5845 5844 5843
5866 5866 5866 5865 5865 5864 5863 5863 5862 5861 5861 5860 5859 5858 5857 5857 5856 5855 5855 5854 5854 5854 5853 5853 5852 5852 5851 5850 5850 5849 5848 5848 5847 5847 5846 5845 5845 5844 5843 5842 5841 5840 5839
5864 5864 5864 5863 5863 5862 5861 5861 5860 5859 5859 5858 5857 5856 5855 5854 5853 5853 5852 5852 5851 5851 5851 5850 5850 5849 5849 5848 5847 5847 5846 5845 5845 5844 5843 5842 5841 5840 5839 5838 5837 5836 5835
5862 5862 5862 5861 5861 5860 5859 5859 5858 5857 5857 5856 5855 5854 5853 5852 5851 5850 5850 5849 5849 5849 5848 5848 5847 5847 5846 5845 5845 5844 5843 5842 5842 5841 5840 5839 5838 5837 5836 5835 5833 5832 5830
5860 5860 5859 5859 5859 5858 5857 5857 5856 5855 5855 5854 5853 5852 5850 5849 5849 5848 5847 5847 5846 5846 5845 5845 5845 5844 5843 5843 5842 5841 5840 5839 5838 5838 5837 5836 5835 5834 5833 5832 5830 5829 5827
5858 5858 5857 5857 5856 5856 5855 5855 5854 5853 5853 5852 5850 5849 5848 5847 5847 5846 5845 5844 5844 5843 5843 5842 5841 5841 5840 5839 5839 5838 5837 5836 5835 5834 5833 5832 5831 5830 5829 5828 5827 5826 5825
5856 5855 5855 5855 5854 5854 5853 5853 5852 5851 5850 5849 5848 5847 5846 5845 5844 5843 5843 5842 5841 5840 5839 5839 5838 5837 5836 5836 5835 5834 5833 5832 5831 5830 5829 5828 5827 5826 5825 5825 5824 5823 5822
5854 5853 5853 5852 5852 5851 5851 5850 5849 5848 5848 5847 5846 5845 5844 5843 5842 5841 5840 5839 5838 5837 5836 5835 5835 5834 5833 5832 5831 5830 5830 5829 5827 5826 5825 5824 5823 5822 5821 5820 5820 5819 5818
5851 5850 5850 5850 5849 5848 5848 5847 5846 5845 5844 5843 5843 5842 5841 5840 5839 5838 5837 5836 5835 5834 5833 5832 5832 5831 5830 5828 5827 5826 5825 5824 5823 5822 5821 5820 5819 5818 5817 5816 5816 5815 5814
5848 5847 5847 5847 5846 5845 5845 5844 5843 5842 5841 5841 5840 5839 5838 5837 5835 5834 5833 5832 5831 5830 5829 5828 5828 5826 5825 5824 5823 5822 5821 5819 5818 5818 5816 5815 5814 5813 5812 5812 5811 5810 5810
5844 5844 5843 5843 5842 5842 5841 5841 5840 5839 5838 5837 5836 5835 5834 5833 5832 5831 5830 5828 5827 5826 5825 5824 5823 5822 5821 5820 5819 5817 5816 5814 5813 5812 5811 5810 5809 5808 5807 5807 5806 5805 5805
5840 5840 5840 5839 5839 5838 5838 5837 5836 5835 5835 5834 5833 5832 5831 5829 5828 5827 5826 5825 5823 5822 5821 5820 5819 5818 5817 5815 5814 5812 5811 5810 5808 5807 5806 5805 5804 5803 5802 5802 5801 5800 5800